SL-16 R/B (22220 NORAD) Tracking and Keplerian Element Data

This shows tracking and keplerian element data for the satellite.

Feedback or suggestion? Click here.




ElementValue
Catalog22220
NameSL-16 R/B
Epoch Orbit61034
Epoch Day12.52950701
Epoch Year2024
RAAN46.2198
Inclination71
Eccentricity0.0014434
Argument of Perigee223.0116
Mean Anonmoly244.4247
Mean Motion14.16615414
Decay Rate-1.06E-06
L11 22220U 92076B 24012.52950701 -.00000106 00000+0 -29253-4 0 9993
L22 22220 71.0000 46.2198 0014434 223.0116 244.4247 14.16615414610343



Live tracking and technical data element details for SL-16 R/B (NORAD 22220). SL-16 R/B can be tracked NOW for your location showing map with azimuth and elevation plus other details from your city location.







IsCatalogInMostPopularTable: catalog: 22220, numindb: 300
Update: records affected: 1



GetName: 22220 SL-16 R/B

Hit Count: updated at: Fri, 19 Apr 2024 12:07:06 GMT